Charlottesville, VA

7:29 PM EDT on October 14, 2019 (GMT -0400)
Charlottesville-Albemarle

Weather History for KCHO - August, 2019

Change the Weather History Date:

Friday, August 16, 2019

  Actual Average Record
Temperature  
Mean Temperature 78 °F 74 °F  
Max Temperature 88 °F 85 °F 101 °F (1989)
Min Temperature 68 °F 64 °F 51 °F (2013)
Degree Days  
Heating Degree Days 0 0  
Month to date heating degree days 0 0  
Since 1 June heating degree days 0 12  
Since 1 July heating degree days 0 1  
Cooling Degree Days 13 9  
Month to date cooling degree days 217 156  
Year to date cooling degree days 1285 786  
Since 1 June cooling degree days 999 700  
Growing Degree Days 28 (Base 50)    
Moisture  
Dew Point 68 °F    
Average Humidity 76    
Maximum Humidity 93    
Minimum Humidity 59    
Precipitation  
Precipitation T in 0.12 in 1.48 in (2007)
Month to date precipitation 1.51 2.14  
Year to date precipitation 26.81 26.66  
Sea Level Pressure  
Sea Level Pressure 29.98 in    
Wind  
Wind Speed 2 mph (East)    
Max Wind Speed 9 mph    
Max Gust Speed 12 mph    
Visibility 8 miles    
Events Fog    
T = Trace of Precipitation, MM = Missing Value Source: NWS Daily Summary

Daily Weather History Graph

Daily Weather History Graph

Search for Another Location

Airport or City:

Astronomy

Aug. 16, 2019 Rise Set
Actual Time 6:29 AM EDT 8:06 PM EDT
Civil Twilight 6:01 AM EDT 8:34 PM EDT
Nautical Twilight 5:27 AM EDT 9:07 PM EDT
Astronomical Twilight 4:51 AM EDT 9:43 PM EDT
Moon 9:05 PM EDT (8/16) 7:19 AM EDT (8/16)
Length of Visible Light 14h 32m
Length of Day
13h 36m
Full, 99% of the Moon is Illuminated
Aug 16
Full
Aug 23
Last Quarter
Aug 30
New
Sep 5
First Quarter
Sep 14
Full

Hourly Weather History & Observations

Time (EDT) Temp. Heat Index Dew Point Humidity Pressure Visibility Wind Dir Wind Speed Gust Speed Precip Events Conditions
12:53 AM 69.1 °F - 66.0 °F 90% 29.97 in - SSE 3.5 mph - N/A   Mostly Cloudy
1:20 AM 69.1 °F - 66.0 °F 90% 29.99 in - SSE 5.8 mph - N/A   Mostly Cloudy
1:32 AM 69.1 °F - 66.0 °F 90% 29.99 in - SSE 5.8 mph - N/A   Mostly Cloudy
1:53 AM 69.1 °F - 66.0 °F 90% 29.97 in - Calm Calm - N/A   Overcast
2:02 AM 70.0 °F - 66.0 °F 87% 29.99 in - SE 4.6 mph - N/A   Overcast
2:53 AM 70.0 °F - 66.0 °F 87% 29.96 in - NNW 3.5 mph - N/A   Overcast
3:02 AM 70.0 °F - 66.9 °F 90% 29.98 in - Calm Calm - N/A   Overcast
3:27 AM 69.1 °F - 66.0 °F 90% 29.97 in - North 3.5 mph - N/A   Mostly Cloudy
3:44 AM 69.1 °F - 64.9 °F 87% 29.96 in - North 6.9 mph - N/A   Overcast
3:53 AM 69.1 °F - 66.0 °F 90% 29.93 in - North 8.1 mph - N/A   Overcast
4:32 AM 69.1 °F - 66.0 °F 90% 29.97 in - Calm Calm - N/A   Scattered Clouds
4:48 AM 69.8 °F - 66.2 °F 88% 29.97 in - Calm Calm - N/A   Mostly Cloudy
4:53 AM 69.1 °F - 66.0 °F 90% 29.95 in - Calm Calm - N/A   Mostly Cloudy
5:53 AM 68.0 °F - 64.9 °F 90% 29.96 in 10.0 mi Calm Calm - N/A   Clear
6:21 AM 68.0 °F - 64.9 °F 90% 30.00 in 0.2 mi West 3.5 mph - N/A Fog Fog
6:53 AM 68.0 °F - 66.0 °F 93% 29.99 in 0.2 mi Calm Calm - N/A Fog Fog
7:53 AM 69.1 °F - 66.0 °F 90% 30.00 in 1.0 mi Calm Calm - N/A   Overcast
8:05 AM 69.1 °F - 66.9 °F 93% 30.02 in 1.0 mi Calm Calm - N/A   Overcast
8:44 AM 71.1 °F - 68.0 °F 90% 30.02 in 5.0 mi Calm Calm - N/A   Overcast
8:53 AM 71.1 °F - 68.0 °F 90% 30.00 in 5.0 mi Calm Calm - N/A   Overcast
9:35 AM 75.0 °F - 69.1 °F 82% 30.02 in 10.0 mi SSE 3.5 mph - N/A   Scattered Clouds
9:53 AM 75.9 °F - 69.1 °F 79% 30.00 in 10.0 mi Calm Calm - N/A   Partly Cloudy
10:53 AM 80.1 °F 83.2 °F 70.0 °F 71% 30.01 in 10.0 mi Calm Calm - N/A   Scattered Clouds
11:53 AM 81.0 °F 84.4 °F 70.0 °F 69% 30.01 in 10.0 mi Variable 3.5 mph - N/A   Mostly Cloudy
12:53 PM 84.0 °F 89.0 °F 71.1 °F 65% 30.00 in 10.0 mi ESE 5.8 mph - N/A   Mostly Cloudy
1:09 PM 84.0 °F 89.6 °F 72.0 °F 67% 30.02 in 10.0 mi ENE 8.1 mph - N/A   Overcast
1:37 PM 84.0 °F 89.0 °F 71.1 °F 65% 30.02 in 10.0 mi SE 5.8 mph - N/A   Mostly Cloudy
1:53 PM 84.9 °F 91.4 °F 73.0 °F 67% 29.99 in 10.0 mi South 3.5 mph - N/A   Partly Cloudy
2:53 PM 84.9 °F 90.1 °F 71.1 °F 63% 29.98 in 10.0 mi NE 4.6 mph - N/A   Scattered Clouds
3:53 PM 84.0 °F 88.4 °F 70.0 °F 63% 29.96 in 10.0 mi Calm Calm - N/A   Scattered Clouds
4:53 PM 87.1 °F 92.8 °F 71.1 °F 59% 29.95 in 10.0 mi NE 4.6 mph - 0.00 in   Clear
5:53 PM 87.1 °F 92.8 °F 71.1 °F 59% 29.95 in 10.0 mi SE 4.6 mph - N/A   Scattered Clouds
6:53 PM 86.0 °F 91.5 °F 71.1 °F 61% 29.94 in 10.0 mi East 3.5 mph - N/A   Partly Cloudy
8:53 PM 79.0 °F - 73.9 °F 84% 29.95 in 10.0 mi Calm Calm - N/A   Clear
9:53 PM 78.1 °F - 72.0 °F 81% 29.97 in 10.0 mi Calm Calm - N/A   Clear
10:53 PM 75.9 °F - 72.0 °F 87% 29.97 in 9.0 mi Calm Calm - N/A   Scattered Clouds
11:53 PM 75.0 °F - 71.1 °F 87% 29.97 in 7.0 mi NNW 4.6 mph - N/A   Clear